TimeAKDT,TemperatureF,Dew PointF,Humidity,Sea Level PressureIn,VisibilityMPH,Wind Direction,Wind SpeedMPH,Gust SpeedMPH,PrecipitationIn,Events,Conditions,WindDirDegrees,DateUTC
12:53 AM,60.1,46.0,60,29.81,10.0,North,4.6,-,N/A,,Scattered Clouds,360,2013-08-07 08:53:00
1:53 AM,57.9,45.0,62,29.81,10.0,NNE,5.8,-,N/A,,Scattered Clouds,30,2013-08-07 09:53:00
2:53 AM,55.9,45.0,67,29.81,10.0,NE,5.8,-,N/A,,Scattered Clouds,40,2013-08-07 10:53:00
3:53 AM,55.0,44.1,67,29.81,10.0,NE,4.6,-,N/A,,Scattered Clouds,50,2013-08-07 11:53:00
4:53 AM,55.0,44.1,67,29.80,10.0,Calm,Calm,-,N/A,,Scattered Clouds,0,2013-08-07 12:53:00
5:53 AM,52.0,45.0,77,29.80,10.0,North,5.8,-,N/A,,Scattered Clouds,360,2013-08-07 13:53:00
6:53 AM,54.0,46.0,75,29.79,10.0,Calm,Calm,-,N/A,,Scattered Clouds,0,2013-08-07 14:53:00
7:53 AM,60.1,48.0,64,29.78,10.0,Calm,Calm,-,N/A,,Partly Cloudy,0,2013-08-07 15:53:00
8:53 AM,63.0,45.0,52,29.77,10.0,Calm,Calm,-,N/A,,Partly Cloudy,0,2013-08-07 16:53:00
9:53 AM,66.9,48.0,51,29.77,10.0,Calm,Calm,-,N/A,,Partly Cloudy,0,2013-08-07 17:53:00
10:53 AM,70.0,46.0,42,29.76,10.0,Variable,3.5,-,N/A,,Partly Cloudy,0,2013-08-07 18:53:00
11:53 AM,75.0,48.9,40,29.75,10.0,East,4.6,-,N/A,,Partly Cloudy,80,2013-08-07 19:53:00
12:53 PM,75.9,46.0,35,29.73,10.0,South,3.5,-,N/A,,Partly Cloudy,180,2013-08-07 20:53:00
1:53 PM,80.1,46.0,30,29.71,10.0,Variable,4.6,-,N/A,,Partly Cloudy,0,2013-08-07 21:53:00
2:53 PM,82.0,44.1,26,29.69,10.0,West,3.5,-,N/A,,Partly Cloudy,280,2013-08-07 22:53:00
3:53 PM,84.0,43.0,24,29.67,10.0,WSW,4.6,-,N/A,,Scattered Clouds,250,2013-08-07 23:53:00
4:53 PM,82.9,41.0,23,29.65,10.0,Variable,3.5,-,N/A,,Mostly Cloudy,0,2013-08-08 00:53:00
5:53 PM,81.0,41.0,24,29.62,10.0,SE,5.8,-,N/A,,Mostly Cloudy,140,2013-08-08 01:53:00
6:53 PM,80.1,44.1,28,29.61,10.0,ESE,10.4,-,N/A,,Mostly Cloudy,110,2013-08-08 02:53:00
7:53 PM,78.1,46.9,33,29.61,10.0,East,5.8,-,0.00,Rain,Light Rain,90,2013-08-08 03:53:00
8:53 PM,75.0,46.0,36,29.61,10.0,ENE,5.8,-,0.00,,Mostly Cloudy,70,2013-08-08 04:53:00
9:53 PM,75.0,48.9,40,29.60,10.0,North,3.5,-,N/A,,Mostly Cloudy,10,2013-08-08 05:53:00
10:53 PM,71.1,51.1,49,29.60,10.0,NW,3.5,-,N/A,,Mostly Cloudy,310,2013-08-08 06:53:00
11:53 PM,68.0,53.1,59,29.61,10.0,South,3.5,-,N/A,,Mostly Cloudy,180,2013-08-08 07:53:00